TimeCST,TemperatureF,Dew PointF,Humidity,Sea Level PressureIn,VisibilityMPH,Wind Direction,Wind SpeedMPH,Gust SpeedMPH,PrecipitationIn,Events,Conditions,WindDirDegrees,DateUTC
12:53 AM,37.0,30.0,76,30.32,10.0,Calm,Calm,-,N/A,,Partly Cloudy,0,2012-11-18 06:53:00
1:53 AM,36.0,30.9,82,30.31,10.0,Calm,Calm,-,N/A,,Partly Cloudy,0,2012-11-18 07:53:00
2:53 AM,43.0,28.9,58,30.30,10.0,SE,3.5,-,N/A,,Partly Cloudy,130,2012-11-18 08:53:00
3:53 AM,37.9,30.0,73,30.29,10.0,Calm,Calm,-,N/A,,Mostly Cloudy,0,2012-11-18 09:53:00
4:53 AM,37.9,30.0,73,30.29,10.0,SE,4.6,-,N/A,,Partly Cloudy,130,2012-11-18 10:53:00
5:53 AM,46.9,30.9,54,30.28,10.0,SSE,5.8,-,N/A,,Clear,150,2012-11-18 11:53:00
6:53 AM,48.0,30.9,52,30.29,10.0,SE,4.6,-,N/A,,Clear,140,2012-11-18 12:53:00
7:53 AM,50.0,32.0,50,30.31,10.0,South,4.6,-,N/A,,Clear,170,2012-11-18 13:53:00
8:53 AM,51.1,34.0,52,30.32,10.0,Variable,4.6,-,N/A,,Clear,0,2012-11-18 14:53:00
9:53 AM,54.0,33.1,45,30.34,10.0,SSE,10.4,16.1,N/A,,Clear,160,2012-11-18 15:53:00
10:53 AM,55.9,33.1,42,30.32,10.0,SSE,9.2,-,N/A,,Clear,160,2012-11-18 16:53:00
11:53 AM,59.0,33.1,38,30.29,10.0,South,9.2,19.6,N/A,,Clear,170,2012-11-18 17:53:00
12:53 PM,63.0,33.1,33,30.25,10.0,South,4.6,-,N/A,,Clear,170,2012-11-18 18:53:00
1:53 PM,64.0,33.1,31,30.23,10.0,SSE,8.1,16.1,N/A,,Clear,160,2012-11-18 19:53:00
2:53 PM,64.0,33.1,31,30.21,10.0,SSE,9.2,17.3,N/A,,Partly Cloudy,160,2012-11-18 20:53:00
3:53 PM,62.1,34.0,35,30.21,10.0,South,6.9,-,N/A,,Partly Cloudy,170,2012-11-18 21:53:00
4:53 PM,61.0,34.0,36,30.20,10.0,SSE,5.8,-,N/A,,Mostly Cloudy,150,2012-11-18 22:53:00
5:53 PM,60.1,35.1,39,30.20,10.0,SE,5.8,-,N/A,,Mostly Cloudy,140,2012-11-18 23:53:00
6:53 PM,57.0,35.1,44,30.21,10.0,SE,4.6,-,N/A,,Partly Cloudy,130,2012-11-19 00:53:00
7:53 PM,55.0,35.1,47,30.22,10.0,SE,5.8,-,N/A,,Partly Cloudy,140,2012-11-19 01:53:00
8:53 PM,57.9,34.0,41,30.21,10.0,SSE,6.9,-,N/A,,Mostly Cloudy,160,2012-11-19 02:53:00
9:53 PM,57.9,34.0,41,30.22,10.0,SSE,4.6,-,N/A,,Mostly Cloudy,160,2012-11-19 03:53:00
10:53 PM,57.9,34.0,41,30.22,10.0,SSE,6.9,-,N/A,,Scattered Clouds,160,2012-11-19 04:53:00
11:53 PM,55.9,37.0,49,30.21,10.0,SSE,6.9,16.1,0.00,Rain,Light Rain,150,2012-11-19 05:53:00